Boonton, New Jersey, United States (07005)
Lat: 40.90N, Lon: 74.41W
Wx Zone: NJZ008
Local Info
Past Weather Observations for Wednesday, October 29, 2014

NOTE: This archive is for the closest National Weather Service station to Boonton. Information may differ from the station used for current weather conditions.

Click here for Long-term Archive

Time Weather Temperature Dewpoint Humidity Pressure Winds Precip Visibility
23:53
Clear
Fog And Mist
43°F / 6°C 41°F / 5°C 93% 29.98 in
(1015 mb)
Calm - 3/4SM
23:51
Obscured
Fog And Mist
43°F / 6°C 41°F / 5°C 93% 29.98 in
(1015 mb)
Calm - 1SM
23:47
Clear
Fog And Mist
45°F / 7°C 43°F / 6°C 93% 29.98 in
(1015 mb)
Calm - 1SM
23:37
Obscured
Fog And Mist
45°F / 7°C 43°F / 6°C 93% 29.98 in
(1015 mb)
WNW 3.5 mph
(WNW 6 kph)
- 3/4SM
23:32
Partly Cloudy
Fog And Mist
45°F / 7°C 43°F / 6°C 93% 29.98 in
(1015 mb)
Calm - 1 1/4SM
23:23
Obscured
Fog
45°F / 7°C 43°F / 6°C 93% 29.98 in
(1015 mb)
Calm - 1/2SM
23:03
Obscured
Fog
45°F / 7°C 43°F / 6°C 93% 29.98 in
(1015 mb)
Calm - 1/4SM
22:53
Obscured
Fog
45°F / 7°C 43°F / 6°C 93% 29.98 in
(1015 mb)
Calm - 1/2SM
22:51
Obscured
Fog And Mist
45°F / 7°C 43°F / 6°C 93% 29.98 in
(1015 mb)
Calm - 3/4SM
22:45
Partly Cloudy
Fog And Mist
45°F / 7°C 43°F / 6°C 93% 29.98 in
(1015 mb)
Calm - 1 1/4SM
22:41
Obscured
Fog And Mist
45°F / 7°C 43°F / 6°C 93% 29.98 in
(1015 mb)
Calm - 3/4SM
22:34
Obscured
Fog And Mist
46°F / 8°C 45°F / 7°C 93% 29.98 in
(1015 mb)
Calm - 1SM
22:20
Clear
Fog And Mist
46°F / 8°C 45°F / 7°C 93% 29.98 in
(1015 mb)
Calm - 1 3/4SM
21:53
Clear
48°F / 9°C 46°F / 8°C 94% 29.98 in
(1015 mb)
S 3.5 mph
(S 6 kph)
- 8SM
20:53
Clear
48°F / 9°C 46°F / 8°C 94% 29.98 in
(1015 mb)
Calm - 9SM
19:53
Mostly Cloudy
50°F / 10°C 46°F / 8°C 88% 29.95 in
(1014 mb)
Calm - 10SM
18:53
Partly Cloudy
50°F / 10°C 46°F / 8°C 88% 29.95 in
(1014 mb)
Calm - 10SM
17:53
Overcast
52°F / 11°C 46°F / 8°C 82% 29.92 in
(1013 mb)
Calm - 10SM
16:53
Overcast
52°F / 11°C 48°F / 9°C 88% 29.92 in
(1013 mb)
Calm 0.03 in
(0.76 mm)
10SM
15:53
Overcast
Light Rain
54°F / 12°C 45°F / 7°C 72% 29.92 in
(1013 mb)
NW 4.6 mph
(NW 7 kph)
0.03 in
(0.76 mm)
5SM
14:53
Overcast
61°F / 16°C 39°F / 4°C 45% 29.89 in
(1012 mb)
NW 11.5 mph
(NW 19 kph)
- 10SM
13:53
Overcast
64°F / 18°C 41°F / 5°C 43% 29.89 in
(1012 mb)
NW 10.4 mph
(NW 17 kph)
- 10SM
12:53
Overcast
68°F / 20°C 43°F / 6°C 40% 29.86 in
(1011 mb)
NW 9.2 mph
(NW 15 kph)
- 10SM
11:53
Mostly Cloudy
70°F / 21°C 54°F / 12°C 57% 29.86 in
(1011 mb)
NW 15 mph
(NW 24 kph)
- 10SM
10:53
Partly Cloudy
68°F / 20°C 54°F / 12°C 60% 29.89 in
(1012 mb)
Variable 6.9 mph
(Variable 11 kph)
- 10SM
09:53
Clear
64°F / 18°C 55°F / 13°C 73% 29.89 in
(1012 mb)
Calm - 8SM
08:53
Clear
Hazy
61°F / 16°C 55°F / 13°C 83% 29.89 in
(1012 mb)
Calm - 6SM
07:53
Clear
Fog And Mist
55°F / 13°C 52°F / 11°C 88% 29.92 in
(1013 mb)
Calm - 5SM
06:53
Clear
Fog And Mist
50°F / 10°C 46°F / 8°C 88% 29.89 in
(1012 mb)
Calm - 5SM
05:53
Clear
50°F / 10°C 46°F / 8°C 88% 29.89 in
(1012 mb)
Calm - 7SM
04:53
Clear
48°F / 9°C 46°F / 8°C 94% 29.89 in
(1012 mb)
Calm - 9SM
03:53
Clear
48°F / 9°C 46°F / 8°C 94% 29.89 in
(1012 mb)
Calm - 10SM
02:53
Clear
50°F / 10°C 46°F / 8°C 88% 29.89 in
(1012 mb)
Calm - 8SM
01:53
Clear
50°F / 10°C 46°F / 8°C 88% 29.89 in
(1012 mb)
Calm - 9SM
00:53
Clear
52°F / 11°C 48°F / 9°C 88% 29.89 in
(1012 mb)
Calm - 7SM
Time Weather Temperature Dewpoint Humidity Pressure Winds Precip Visibility


Weather for websites

WeatherForYou.com, LLC is not responsible for any damages or problems caused by this service. Current weather conditions are obtained from the closest station including government and personal stations which may have varying degrees of accuracy. Weather forecasts are derived from the NOAA NDFD. Like all things, this site belongs to Jesus Christ... He just trusts me to maintain it. If you have any questions or comments email webmaster@weatherforyou.com

Copyright © 2014, WeatherForYou.com LLC. All rights reserved.